TimeAKST,TemperatureF,Dew PointF,Humidity,Sea Level PressureIn,VisibilityMPH,Wind Direction,Wind SpeedMPH,Gust SpeedMPH,PrecipitationIn,Events,Conditions,WindDirDegrees,DateUTC
12:53 AM,39.0,37.9,96,29.80,10.0,North,5.8,-,N/A,,Mostly Cloudy,360,2014-01-27 09:53:00
1:53 AM,41.0,37.9,89,29.79,10.0,Variable,5.8,-,N/A,,Clear,0,2014-01-27 10:53:00
3:53 AM,39.0,37.0,93,29.73,10.0,Variable,3.5,-,N/A,,Clear,0,2014-01-27 12:53:00
4:53 AM,37.9,36.0,93,29.71,10.0,Calm,Calm,-,N/A,,Mostly Cloudy,0,2014-01-27 13:53:00
5:53 AM,41.0,37.9,89,29.70,10.0,East,5.8,-,N/A,,Partly Cloudy,80,2014-01-27 14:53:00
6:53 AM,39.0,36.0,89,29.68,10.0,Variable,5.8,-,N/A,,Partly Cloudy,0,2014-01-27 15:53:00
7:53 AM,41.0,36.0,82,29.66,10.0,Variable,5.8,-,N/A,,Clear,0,2014-01-27 16:53:00
8:53 AM,42.1,34.0,73,29.66,10.0,Variable,4.6,-,N/A,,Clear,0,2014-01-27 17:53:00
9:53 AM,53.1,30.0,41,29.68,10.0,South,13.8,21.9,N/A,,Overcast,190,2014-01-27 18:53:00
10:53 AM,57.9,28.9,33,29.65,10.0,ESE,12.7,18.4,N/A,,Clear,110,2014-01-27 19:53:00
11:42 AM,48.2,42.8,82,29.68,6.0,SSW,24.2,32.2,0.02,Rain,Light Rain,200,2014-01-27 20:42:00
11:53 AM,46.9,42.1,83,29.69,5.0,SSW,26.5,39.1,0.03,Rain,Light Rain,200,2014-01-27 20:53:00
12:53 PM,46.0,42.1,86,29.75,5.0,South,9.2,25.3,0.10,Rain,Light Rain,180,2014-01-27 21:53:00
1:53 PM,46.9,39.9,77,29.78,10.0,SSW,13.8,21.9,0.04,,Overcast,210,2014-01-27 22:53:00
2:53 PM,46.0,39.9,79,29.79,10.0,SSW,12.7,-,N/A,,Overcast,200,2014-01-27 23:53:00
3:53 PM,44.1,41.0,89,29.81,9.0,NNE,3.5,-,0.01,Rain,Light Rain,20,2014-01-28 00:53:00
4:51 PM,42.8,42.8,100,29.83,8.0,NW,3.5,-,0.02,Rain,Light Rain,310,2014-01-28 01:51:00
4:53 PM,43.0,42.1,97,29.83,9.0,NW,3.5,-,0.02,Rain,Light Rain,310,2014-01-28 01:53:00
5:26 PM,42.8,41.0,93,29.84,8.0,Calm,Calm,-,0.01,Rain,Light Rain,0,2014-01-28 02:26:00
5:53 PM,42.1,41.0,96,29.84,8.0,Calm,Calm,-,0.02,Rain,Light Rain,0,2014-01-28 02:53:00
6:35 PM,42.8,41.0,93,29.85,6.0,ESE,3.5,-,0.02,Rain,Light Rain,120,2014-01-28 03:35:00
6:41 PM,42.8,41.0,93,29.85,7.0,Calm,Calm,-,0.02,Rain,Light Rain,0,2014-01-28 03:41:00
6:53 PM,42.1,41.0,96,29.85,8.0,ESE,4.6,-,0.03,Rain,Light Rain,120,2014-01-28 03:53:00
7:53 PM,42.1,41.0,96,29.85,8.0,Variable,3.5,-,0.01,Rain,Light Rain,0,2014-01-28 04:53:00
8:53 PM,43.0,39.9,89,29.86,7.0,South,10.4,-,0.02,Rain,Light Rain,190,2014-01-28 05:53:00
9:53 PM,42.1,41.0,96,29.88,7.0,SSE,6.9,-,0.00,,Overcast,150,2014-01-28 06:53:00
10:24 PM,42.8,41.0,93,29.88,10.0,Calm,Calm,-,N/A,,Overcast,0,2014-01-28 07:24:00
10:35 PM,42.8,41.0,93,29.88,10.0,Calm,Calm,-,0.00,Rain,Light Rain,0,2014-01-28 07:35:00
10:53 PM,42.1,41.0,96,29.88,10.0,Calm,Calm,-,0.00,Rain,Light Rain,0,2014-01-28 07:53:00
11:37 PM,41.0,39.2,93,29.89,8.0,Calm,Calm,-,0.01,Rain,Light Rain,0,2014-01-28 08:37:00
11:53 PM,41.0,39.9,96,29.90,8.0,Calm,Calm,-,0.02,Rain,Light Rain,0,2014-01-28 08:53:00